Torna al catalogo

LUCH DEB

AttivoGEO
NORAD 44582·DEBRIS·🇷🇺 Russia

Lanciato Dec 16, 1994 da Baikonur Cosmodrome

Loading…

TLE

AggiornatoSource: Space-Track

Epoca: Sep 14, 2026, 00:10 UTC

1 44582U 94082G   26257.00710311  .00000087  00000-0  00000-0 0  9996
2 44582  14.5825 353.3085 0017279 118.0009 255.8835  1.00688014 47142

Traccia LUCH DEB in tempo reale con AllMySat

Download on the App Store